Overview Statistics Trail Chart Weather Telemetry Raw packets
 

This is the latest recevied weather packets stored in our database for station/object HB9FHL-13. If no packets are shown the sender has not sent any weather packets the latest 10 day(s).

<< 86 87 88 89 90 91 92 >>
Time Temp. Humidity Pressure Rain* Wind** Luminosity Snow
1788123575 22.22° C - 1019.7 hPa 0 mm - - -
1788123272 21.67° C - 1016.2 hPa 0 mm - - -
1788123012 21.67° C - 1016.7 hPa 0 mm - - -
1788122971 21.67° C - 1016.7 hPa 0 mm - - -
1788122671 21.67° C - 1019.6 hPa 0 mm - - -
1788122370 22.22° C - 1015.9 hPa 0 mm - - -
1788122070 22.78° C - 1017.4 hPa 0 mm - - -
1788121770 22.22° C - 1019.5 hPa 0 mm - - -
1788121469 22.22° C - 1018.7 hPa 0 mm - - -
1788121169 22.22° C - 1017.1 hPa 0 mm - - -
1788120913 21.67° C - 1018.1 hPa 0 mm - - -
1788120867 21.67° C - 1018.1 hPa 0 mm - - -
1788120566 22.22° C - 1018.5 hPa 0 mm - - -
1788120318 21.67° C - 1015.3 hPa 0 mm - - -
1788120266 21.67° C - 1015.3 hPa 0 mm - - -
1788119965 21.67° C - 1015.9 hPa 0 mm - - -
1788119663 22.22° C - 1019.2 hPa 0 mm - - -
1788119363 22.22° C - 1017.7 hPa 0 mm - - -
1788119062 22.22° C - 1016.3 hPa 0 mm - - -
1788118804 22.78° C - 1016.3 hPa 0 mm - - -
1788118762 22.78° C - 1016.3 hPa 0 mm - - -
1788118520 22.22° C - 1018.4 hPa 0 mm - - -
1788118461 22.22° C - 1018.4 hPa 0 mm - - -
1788117860 22.78° C - 1016.1 hPa 0 mm - - -
1788117601 21.67° C - 1018.4 hPa 0 mm - - -

* Rain since midnight (hover to see other rain measurements)
** Current wind speed in m/s (hover to see current wind gust speed)